Regional Weather Roundup
Issued by NWS

Home | Current Version | Previous Version | Graphics & Text | Print | Product List | Glossary On
Versions: 1 2 3 4 5 6 7 8 9 10 11 12 13 14 15 16 17 18 19 20 21 22 23 24 25 26 27 28 29 30 31 32 33 34 35 36 37 38 39 40 41 42 43 44 45 46 47 48 49 50
000
ASUS43 KDTX 100001
RWRMI
MICHIGAN HOURLY REGIONAL WEATHER ROUNDUP
NATIONAL WEATHER SERVICE DETROIT/PONTIAC MI
700 PM EST FRI DEC 09 2016

NOTE: "FAIR" INDICATES FEW OR NO CLOUDS BELOW 12,000 FEET WITH NO
SIGNIFICANT WEATHER AND/OR OBSTRUCTION TO VISIBILITY.

MIZ047>049-052>055-059>063-066>070-074>076-081>083-100100-
SOUTHEAST LOWER MICHIGAN

CITY           SKY/WX    TMP DP  RH WIND       PRES   REMARKS
ADRIAN         CLOUDY    24  21  88 NW7       30.44R WCI  16
6HR MIN TEMP:  24; 6HR MAX TEMP:  30; 6HR PCP: TRACE;

ALMA           PTCLDY    24  14  66 W8        30.39S WCI  15
ANN ARBOR      CLOUDY    26  16  65 W10       30.40S WCI  16
BAD AXE        LGT SNOW  25  22  87 SW6       30.35S WCI  18
CARO           CLOUDY    27  16  64 W9        30.35F WCI  18
DETROIT CITY   CLOUDY    28  16  60 W12G17    30.40R WCI  18
6HR MIN TEMP:  28; 6HR MAX TEMP:  33;

DETROIT        CLOUDY    28  20  71 W10       30.41S WCI  19
6HR MIN TEMP:  27; 6HR MAX TEMP:  33; 6HR PCP: TRACE;

FLINT          CLOUDY    26  17  68 W14       30.38S WCI  14
6HR MIN TEMP:  26; 6HR MAX TEMP:  30;

GROSSE ILE     CLOUDY    28  22  76 NW8       30.40S WCI  20
6HR MIN TEMP:  28; 6HR MAX TEMP:  32;

HILLSDALE      LGT SNOW  23  19  86 W12       30.40S WCI  12
HOWELL         FLURRIES  25  19  78 W9        30.38S WCI  16
6HR MIN TEMP:  25; 6HR MAX TEMP:  31;


CITY           SKY/WX    TMP DP  RH WIND       PRES   REMARKS
JACKSON        CLOUDY    24  19  81 W7        30.41S WCI  16
6HR MIN TEMP:  24; 6HR MAX TEMP:  28; 6HR PCP: TRACE;

LAMBERTVILLE   CLOUDY    29  22  74 W9        30.43S WCI  20
6HR MIN TEMP:  29; 6HR MAX TEMP:  33;

LANSING        CLOUDY    24  16  71 W9        30.41S WCI  14
6HR MIN TEMP:  24; 6HR MAX TEMP:  29; 6HR PCP: TRACE;

LAPEER         NOT AVBL
MASON          CLOUDY    24  19  80 W10       30.40S WCI  14
MONROE         CLOUDY    28  23  81 W7        30.41S WCI  21
6HR MIN TEMP:  28; 6HR MAX TEMP:  32;

MT. CLEMENS    FLURRIES  29  14  54 W9        30.36S WCI  20
6HR MIN TEMP:  29; 6HR MAX TEMP:  35; 6HR PCP: TRACE;

PONTIAC        CLOUDY    25  18  74 W10       30.36F WCI  15
6HR MIN TEMP:  25; 6HR MAX TEMP:  32; 6HR PCP: TRACE;

PORT HOPE        N/A     26  23  88 SW6       30.33R WCI  19
6HR MIN TEMP:  26; 6HR MAX TEMP:  29; 6HR PCP:  0.01;

PORT HURON     CLOUDY    27  21  80 CALM      30.37S
TRI CITIES     CLOUDY    26  18  71 W14       30.38S WCI  14
6HR MIN TEMP:  26; 6HR MAX TEMP:  30; 6HR PCP: TRACE;

MIDLAND        CLOUDY    28  15  56 W13       30.37S WCI  18
6HR MIN TEMP:  28; 6HR MAX TEMP:  32;

TROY           LGT SNOW  28  20  73 W9G17     30.41S WCI  19
SAGINAW HB     CLOUDY    28  18  64 W13       30.37S WCI  18
$$
MIZ043>046-050>051-056>058-064>065-071>073-077>080-100100-
SOUTHWEST LOWER MICHIGAN

CITY           SKY/WX    TMP DP  RH WIND       PRES   REMARKS
BATTLE CREEK   FLURRIES  24  19  81 W8        30.42F WCI  15
6HR MIN TEMP:  23; 6HR MAX TEMP:  28; 6HR PCP: TRACE;

BENTON HARBOR  CLOUDY    28  13  53 W13G22    30.46S WCI  17
6HR MIN TEMP:  27; 6HR MAX TEMP:  29; 6HR PCP: TRACE;

BIG RAPIDS     CLOUDY    23  17  79 W9        30.37S WCI  13
6HR MIN TEMP:  23; 6HR MAX TEMP:  28;

COLDWATER      CLOUDY    25  20  83 W7        30.43S WCI  17
6HR MIN TEMP:  24; 6HR MAX TEMP:  29;

FREMONT        CLOUDY    23  14  68 W7        30.41S WCI  15
6HR MIN TEMP:  23; 6HR MAX TEMP:  26;

HOLLAND        CLOUDY    27  14  58 NW10      30.43S WCI  17
6HR MIN TEMP:  25; 6HR MAX TEMP:  28; 6HR PCP:  0.01;

GRAND RAPIDS   LGT SNOW  24  19  81 W5        30.42F WCI  18
6HR MIN TEMP:  23; 6HR MAX TEMP:  27; 6HR PCP:  0.02;

IONIA          CLOUDY    24  19  80 W8        30.40S WCI  15
6HR MIN TEMP:  24; 6HR MAX TEMP:  27;

KALAMAZOO      FLURRIES  25  17  72 W8        30.44S WCI  16
6HR MIN TEMP:  25; 6HR MAX TEMP:  28; 6HR PCP: TRACE;

LUDINGTON      CLOUDY    26  13  59 NW7       30.40S WCI  18
6HR MIN TEMP:  25; 6HR MAX TEMP:  27;

MARSHALL       FLURRIES  24  20  86 W7        30.42S WCI  16
6HR MIN TEMP:  24; 6HR MAX TEMP:  28;

MOUNT PLEASANT CLOUDY    25  16  70 W7        30.37S WCI  17
6HR MIN TEMP:  25; 6HR MAX TEMP:  31;

MUSKEGON       CLOUDY    27  15  61 NW8G18    30.43F WCI  19
6HR MIN TEMP:  25; 6HR MAX TEMP:  28; 6HR PCP:  0.02;

SOUTH HAVEN    CLOUDY    28  14  56 NW9       30.45S WCI  19
$$
MIZ016>042-100100-
NORTHERN LOWER MICHIGAN

CITY           SKY/WX    TMP DP  RH WIND       PRES   REMARKS
ALPENA         CLOUDY    21  15  78 CALM      30.34S
6HR MIN TEMP:  20; 6HR MAX TEMP:  27;

BEAVER ISLAND  CLOUDY    25  18  75 NW13G21   30.35R WCI  13
6HR MIN TEMP:  24; 6HR MAX TEMP:  28;

BELLAIRE       LGT SNOW  24  23  96 CALM      30.35F
6HR MIN TEMP:  24; 6HR MAX TEMP:  26;

CADILLAC       LGT SNOW  21  17  84 W8        30.32S WCI  11
CHARLEVOIX     LGT SNOW  27  24  89 NW14G20   30.36F WCI  15
6HR MIN TEMP:  25; 6HR MAX TEMP:  28;

FRANKFORT      CLOUDY    27  17  65 W6        30.38S WCI  20
GAYLORD        LGT SNOW  20  16  84 SW3       30.29F FOG
6HR MIN TEMP:  19; 6HR MAX TEMP:  25; 6HR PCP: TRACE;

GRAYLING       LGT SNOW  23  20  89 CALM      30.32S
6HR MIN TEMP:  23; 6HR MAX TEMP:  26;

HARBOR SPRINGS LGT SNOW  23  21  92 CALM      30.33S VSB 3/4
HOUGHTON LAKE  LGT SNOW  22  20  92 NW9       30.33R VSB 3/4 WCI  12
6HR MIN TEMP:  22; 6HR MAX TEMP:  27; 6HR PCP:  0.09;

MANISTEE       FLURRIES  25  16  68 W10       30.39S WCI  15
OSCODA         CLOUDY    26  17  67 NE3       30.33F
6HR MIN TEMP:  26; 6HR MAX TEMP:  31;

PELLSTON       LGT SNOW  22  19  89 CALM      30.34S FOG
6HR MIN TEMP:  20; 6HR MAX TEMP:  26; 6HR PCP:  0.02;

ROGERS CITY    FLURRIES  23  18  81 CALM      30.35S
TRAVERSE CITY  LGT SNOW  25  21  85 W6        30.36S FOG     WCI  18
6HR MIN TEMP:  25; 6HR MAX TEMP:  29; 6HR PCP:  0.03;

$$
MIZ007>008-015-100100-
EASTERN UPPER MICHIGAN

CITY           SKY/WX    TMP DP  RH WIND       PRES   REMARKS
KINROSS        FLURRIES  14  12  92 E3        30.33F
6HR MIN TEMP:  14; 6HR MAX TEMP:  23; 6HR PCP: TRACE;

MACKINAC ISLAN CLOUDY    21  15  77 N6        30.32F WCI  13
6HR MIN TEMP:  20; 6HR MAX TEMP:  24;

NEWBERRY       MOCLDY    13  13  98 CALM      30.33S
6HR MIN TEMP:  13; 6HR MAX TEMP:  22;

S. S. MARIE    LGT SNOW  19  15  84 S3        30.33F FOG
6HR MIN TEMP:  19; 6HR MAX TEMP:  22; 6HR PCP:  0.01;

$$
MIZ004>006-011>014-085-100100-
CENTRAL UPPER MICHIGAN

CITY           SKY/WX    TMP DP  RH WIND       PRES   REMARKS
MANISTIQUE     CLOUDY    19  13  79 W12       30.36S WCI   6
6HR MIN TEMP:  19; 6HR MAX TEMP:  24;

ESCANABA       CLOUDY    23  10  57 W8        30.39S WCI  14
6HR MIN TEMP:  23; 6HR MAX TEMP:  27; 6HR PCP: TRACE;

MENOMINEE      CLOUDY    22   8  55 NW9G17    30.42S WCI  12
6HR MIN TEMP:  22; 6HR MAX TEMP:  26;

SAWYER-GWINN   CLOUDY    16   9  73 W5        30.34F WCI   9
$$
MIZ001>003-009>011-084-100100-
WESTERN UPPER MICHIGAN

CITY           SKY/WX    TMP DP  RH WIND       PRES   REMARKS
IRON MOUNTAIN  CLOUDY    18   5  57 W12       30.37R WCI   5
6HR MIN TEMP:  18; 6HR MAX TEMP:  23; 6HR PCP: TRACE;

HOUGHTON       LGT SNOW  17  13  84 SW5       30.33F FOG     WCI  10
6HR MIN TEMP:  17; 6HR MAX TEMP:  19; 6HR PCP:  0.01;

COPPER HARBOR    N/A     22  14  71 N15       30.36F WCI   9
6HR MIN TEMP:  21; 6HR MAX TEMP:  23; 6HR PCP:  0.02;

IRONWOOD       FLURRIES  12   4  70 W10       30.40F WCI  -1
6HR MIN TEMP:  12; 6HR MAX TEMP:  15; 6HR PCP: TRACE;

$$

ABBREVIATIONS USED IN REMARKS
   TC - TEMPERATURE IN CELSIUS
  WCI - WIND CHILL INDEX
   HX - HEAT INDEX
  VSB - VISIBILITY




USA.gov is the U.S. government's official web portal to all federal, state and local government web resources and services.